Flag for Canada Weather past 2 weeks in Kingston, Ontario, Canada

Now
66 °F

Scattered clouds.


Feels Like: 66 °F
Forecast: 53 / 69 °F
Wind: 8 mph from Northwest

Location: Kingston

Current Time: Jul 29, 2014 at 11:28:04 AM

Latest Report: Jul 29, 2014 at 11:00 AM


Visibility: 15 mi

Pressure: 29.89 "Hg

Humidity: 60%

Dew point: 52 °F

Location of KingstonLocation

Historic Weather in Kingston — Graph

°F

Kingston temperature yesterday

Maximum temperature yesterday: 64 °F (at 7:00 PM)
Minimum temperature yesterday: 57 °F (at 11:00 PM)
Average temperature yesterday: 60 °F

Past Weeks' High & Low Weather Summary

 TemperatureHumidityPressure
High81 °F (Jul 23, 1:00 PM)100% (Jul 15, 8:45 AM)30.25 "Hg (Jul 15, 8:45 AM)
Low52 °F (Jul 19, 6:00 AM)38% (Jul 24, 4:00 PM)29.61 "Hg (Jul 28, 9:00 AM)
Average68 °F75%29.97 "Hg
* Reported Jul 14 10:00 AM — Jul 29 10:00 AM, Kingston, Weather by CustomWeather, © 2014

Note: Actual official high and low records may vary slightly from our data, if they occured in-between our weather recording intervals... More about our weather records

Advertising

Kingston weather history for previous 24 hours

 ConditionsComfort  
Time TempWeatherWind HumidityBarometerVisibility
10:00 AM
Jul 29
64 °FPartly sunny.10 mph64%29.88 "Hg15 mi
9:00 AM63 °FScattered clouds.10 mph64%29.87 "Hg15 mi
8:00 AM59 °FScattered clouds.9 mph77%29.86 "Hg15 mi
7:00 AM54 °FScattered clouds.7 mph94%29.85 "Hg15 mi
6:00 AM52 °FPassing clouds.9 mph94%29.83 "Hg15 mi
11:00 PM
Jul 28
57 °FPartly cloudy.8 mph82%29.78 "Hg15 mi
10:00 PM59 °FPassing clouds.6 mph77%29.78 "Hg15 mi
9:00 PM59 °FPartly sunny.7 mph77%29.76 "Hg15 mi
8:00 PM63 °FPartly sunny.12 mph73%29.75 "Hg15 mi
7:00 PM64 °FMostly cloudy.3 mph83%29.73 "Hg15 mi
6:00 PM63 °FMostly cloudy.12 mph83%29.71 "Hg15 mi
5:00 PM61 °FLight rain. Cloudy.12 mph94%29.70 "Hg15 mi
4:00 PM59 °FLight rain. More clouds than sun.16 mph94%29.69 "Hg10 mi
3:00 PM59 °FLight rain. Cloudy.15 mph94%29.67 "Hg12 mi
2:00 PM59 °FLight rain. Mostly cloudy.16 mph94%29.65 "Hg10 mi
1:00 PM59 °FLight rain. Fog.20 mph94%29.64 "Hg8 mi
12:00 PM59 °FLight rain. Mostly cloudy.15 mph94%29.63 "Hg8 mi
11:00 AM59 °FLight rain. Fog.18 mph94%29.62 "Hg6 mi
Weather by CustomWeather, © 2014

See weather overviewHow to use our weather pages